Wetbulb
54.91 54.67 54.40 54.03 53.50 53.31 52.95 53.06 53.14 52.75 52.74 52.76 53.07 53.53 53.82 53.58 53.39 53.26 53.40 53.26 53.66 54.00 54.13 54.13 54.76 55.59 51.70 43.84 47.47 56.16 64.36 62.33 57.92 54.61 49.39 46.49 40.57 37.46 34.13 36.78 39.74 36.73 40.51 42.57 43.94 43.69 44.26
54.18 54.20 54.07 54.06 53.59 53.23 53.08 53.10 52.97 53.04 53.30 53.05 52.70 52.85 53.00 53.39 53.21 53.14 53.11 53.21 53.11 53.31 53.65 53.94 54.97 55.92 47.89 35.96 51.80 54.30 57.77 55.44 55.38 50.64 45.74 45.48 42.00 43.10 38.47 37.86 36.89 39.54 39.71 41.18 41.63 42.59 43.26
54.18 54.11 54.26 54.03 53.82 53.16 53.12 53.29 53.47 53.32 53.14 53.75 53.36 53.15 53.40 53.05 53.04 53.15 52.86 52.76 52.49 52.90 53.79 54.29 55.11 54.06 46.41 41.05 51.15 51.21 54.57 49.67 50.00 50.25 46.26 47.17 46.23 43.16 40.59 38.12 40.29 40.92 37.07 38.57 40.33 41.71 42.81
54.19 54.21 54.24 53.82 53.45 52.93 52.97 53.24 53.37 53.53 53.38 53.77 54.14 53.64 53.33 53.17 53.16 52.95 53.01 52.71 52.97 53.42 54.01 54.62 55.81 50.41 41.04 50.70 51.40 52.31 47.84 47.78 47.39 48.48 47.16 47.33 46.81 42.75 39.52 40.95 40.19 35.97 34.85 30.02 36.60 39.64 42.61
53.55 53.45 53.57 53.06 52.79 52.51 52.51 52.97 53.02 53.16 53.22 53.23 53.95 53.83 53.19 53.05 53.03 52.90 52.65 52.87 53.21 53.94 54.60 54.75 48.86 44.89 42.75 55.25 49.95 50.39 47.39 47.02 46.89 47.51 47.26 49.79 45.75 40.99 39.90 34.49 31.54 32.00 26.64 28.93 33.75 38.44 38.54
53.31 53.25 52.95 52.79 52.49 52.20 52.67 52.61 52.88 53.29 53.07 53.15 52.98 53.29 52.95 52.36 52.80 52.78 52.29 52.56 52.01 52.71 53.68 54.24 51.98 43.60 46.47 46.90 49.09 48.97 48.28 48.62 45.95 45.08 44.55 43.65 38.83 35.80 33.18 31.90 25.76 29.53 28.77 31.98 32.36 37.43 37.31
52.85 52.91 53.03 52.90 52.74 52.32 52.63 52.61 52.92 52.86 52.74 52.69 52.76 52.70 52.18 51.93 52.03 52.50 49.53 45.19 41.69 40.46 46.74 42.27 45.86 45.88 48.07 50.69 50.74 47.17 49.45 47.19 45.37 41.61 34.86 37.75 33.05 30.09 34.13 35.39 36.86 35.52 33.56 32.42 36.05 39.85 36.44
52.84 52.90 53.09 52.55 52.38 51.73 52.51 52.67 52.96 52.47 52.11 52.05 51.97 51.66 51.80 52.14 51.96 51.98 47.43 44.56 45.38 44.10 38.25 45.42 45.73 47.39 50.55 48.83 44.34 46.77 49.31 41.79 40.25 34.72 37.33 34.12 30.06 36.56 38.99 37.63 36.07 34.73 31.99 31.97 35.96 40.55 38.48
52.67 52.67 52.55 52.24 52.03 52.03 51.66 52.11 52.82 51.74 51.40 51.91 51.65 51.59 51.37 51.56 51.59 47.60 44.08 46.92 50.24 45.37 37.34 42.43 46.24 45.85 45.96 47.02 43.77 43.70 45.73 42.47 38.41 35.18 34.77 31.25 35.34 39.44 37.85 35.35 36.09 33.85 32.70 33.52 33.74 38.30 38.49
52.13 52.09 51.94 51.99 52.10 52.30 52.55 52.26 52.60 51.59 51.92 51.37 51.05 50.93 51.11 51.03 46.59 43.53 45.01 49.24 47.69 45.26 32.60 40.49 42.47 46.10 46.11 43.74 40.89 47.06 47.08 43.38 38.43 35.36 34.90 33.62 37.62 37.19 34.73 34.44 36.89 30.14 37.85 38.19 36.56 32.88 26.35
51.59 51.46 51.86 51.90 52.03 52.61 52.47 52.52 52.33 51.83 51.39 50.79 50.59 50.82 50.60 50.18 42.75 42.86 47.99 47.20 46.27 45.75 24.48 43.45 41.88 47.17 44.48 40.48 42.41 43.91 47.06 42.38 37.51 36.69 35.49 34.03 34.93 34.41 32.78 35.41 39.10 34.19 39.71 36.80 35.60 31.93 28.59
51.17 51.31 51.61 51.92 52.53 52.91 52.28 51.67 51.92 51.32 50.67 50.41 50.49 50.74 50.26 47.21 44.70 46.50 47.65 45.66 46.27 34.52 27.51 38.55 42.95 42.21 40.92 40.78 41.46 43.59 43.47 43.67 41.89 36.89 35.83 35.50 39.08 37.11 36.26 40.31 40.05 40.58 35.62 33.43 31.45 28.40 21.20
50.77 51.38 51.92 52.61 52.81 52.47 52.17 51.69 51.39 50.80 50.39 50.39 50.45 50.40 49.06 48.35 43.37 45.55 45.30 43.95 32.83 27.71 41.50 36.95 37.75 41.01 37.95 37.96 40.14 41.71 39.45 35.87 32.57 28.21 28.00 33.43 33.43 38.69 41.26 35.12 36.76 34.26 27.56 20.80 19.97 19.55 20.61
51.43 51.80 52.18 52.59 52.51 52.33 51.84 51.23 50.58 50.14 49.95 49.92 49.69 48.99 48.63 48.47 45.93 46.02 43.41 37.35 28.93 37.41 35.55 40.83 40.04 39.79 35.84 38.63 38.30 39.51 36.94 33.03 37.41 34.55 28.69 26.07 26.50 35.29 39.86 35.64 31.77 30.35 29.13 21.86 17.11 19.88 22.44
51.32 51.89 52.20 52.15 52.29 51.93 51.28 50.40 49.68 49.57 49.32 48.97 48.25 44.86 45.97 48.20 49.14 44.17 39.30 29.99 30.44 36.55 40.47 38.12 39.18 35.99 36.21 37.63 37.38 36.44 34.45 34.52 37.28 35.94 29.13 27.45 29.25 38.78 39.82 39.66 36.86 31.27 27.68 32.42 25.73 26.27 21.73
51.33 51.56 51.70 51.96 52.14 51.69 50.62 49.83 49.49 49.80 49.12 48.84 41.37 43.34 45.65 49.64 46.45 42.98 35.65 34.16 35.99 41.89 41.68 40.03 32.54 36.05 31.56 33.67 32.80 32.03 32.49 38.36 37.42 39.05 36.35 33.02 26.95 36.18 38.36 38.99 38.74 34.41 35.99 27.75 27.57 21.31 18.73
51.30 51.32 51.84 51.80 52.14 51.07 50.04 49.51 49.74 49.54 48.58 48.19 41.90 41.49 47.33 45.92 45.16 39.82 30.81 33.74 38.84 42.79 43.12 38.84 35.03 33.49 33.57 32.75 32.32 31.40 33.44 37.37 40.17 38.51 37.12 34.11 30.16 31.50 35.05 32.61 31.04 30.45 27.93 30.03 28.40 28.01 21.06
51.02 50.29 51.47 52.23 51.36 50.39 49.65 49.23 49.10 48.67 47.78 46.16 38.80 37.40 47.24 44.86 35.67 33.25 32.72 37.80 41.29 40.82 43.40 40.23 39.06 36.77 34.28 34.33 31.88 31.76 32.07 35.95 41.57 39.35 33.26 35.13 30.60 27.13 31.09 37.86 39.50 37.00 32.83 31.73 24.27 22.80 25.31
50.87 50.81 51.46 51.88 50.65 49.96 49.10 48.63 48.76 48.47 48.11 44.59 39.57 38.12 46.21 43.72 27.90 29.56 34.49 38.23 39.71 39.07 39.63 38.37 36.85 37.19 36.84 32.54 28.92 34.23 35.98 40.96 40.89 38.05 34.65 35.10 30.30 27.30 27.79 31.23 36.21 34.48 35.90 35.90 34.34 32.38 26.21
51.03 51.10 51.79 50.92 50.13 49.18 48.68 48.48 48.47 48.15 47.94 42.55 38.40 33.05 36.64 36.90 35.33 32.30 32.45 34.47 35.99 41.95 39.45 38.91 37.33 37.34 34.61 32.63 34.07 31.79 33.47 38.41 39.33 38.64 44.01 40.39 34.78 31.45 25.75 29.20 34.06 32.00 33.99 35.64 33.69 28.90 26.71
50.72 51.11 51.50 50.34 49.43 48.08 47.68 47.76 48.16 47.53 47.71 41.37 36.14 32.84 33.93 28.77 30.82 31.62 32.11 35.10 34.31 34.01 38.12 36.96 34.49 35.39 33.13 28.83 30.61 30.53 33.41 34.82 37.42 41.20 38.70 38.28 32.18 33.52 34.24 34.73 34.76 33.50 32.85 33.71 32.57 33.64 30.10
50.57 50.69 51.24 50.09 48.95 47.67 47.33 47.35 47.99 47.30 47.12 39.65 33.49 32.28 33.93 31.74 33.25 31.76 32.71 31.51 33.10 35.65 35.36 34.26 32.20 35.27 33.44 29.64 31.84 30.84 31.80 31.15 31.77 35.76 35.45 39.06 30.56 34.15 31.45 33.93 33.68 31.46 33.57 34.13 34.33 34.75 33.79
50.47 50.65 50.85 49.57 48.42 47.19 47.12 47.01 47.21 47.67 44.50 37.22 37.85 37.58 37.90 31.91 30.74 28.69 29.64 31.97 33.01 34.67 36.55 38.01 35.37 32.80 32.35 34.86 36.85 37.79 37.86 37.57 36.31 33.83 31.79 33.45 34.79 32.63 26.82 32.06 31.15 27.81 34.21 35.63 35.51 36.85 35.89
50.55 50.42 50.38 49.12 48.20 46.90 46.98 46.76 46.96 46.78 44.12 38.38 37.68 38.75 34.04 27.58 30.27 30.86 33.21 33.92 32.80 34.59 32.53 36.81 36.92 32.66 37.51 40.25 38.82 37.69 36.87 36.88 36.97 36.54 36.49 32.92 33.48 33.37 26.98 28.87 19.67 32.67 40.03 39.22 35.76 36.89 37.89
50.26 50.29 50.22 48.94 47.72 46.66 46.68 46.68 46.40 46.23 45.83 38.51 37.70 36.22 34.90 31.75 32.07 33.19 34.62 33.67 33.93 34.86 33.55 34.97 36.66 38.53 39.21 35.64 31.97 31.19 31.76 34.59 38.25 37.22 35.22 37.28 34.93 30.18 25.22 24.88 29.25 32.84 37.75 35.56 33.90 33.01 38.61
50.18 50.45 49.64 48.46 47.34 46.62 46.56 46.55 46.14 46.30 45.86 38.41 36.66 38.34 39.27 32.82 28.00 36.46 32.96 33.42 29.37 28.60 30.55 34.85 38.28 39.54 36.53 34.27 31.25 26.85 25.58 31.83 29.17 35.56 39.63 39.16 36.36 32.80 29.48 24.07 21.10 31.88 39.34 40.84 38.76 27.99 38.61
50.08 50.41 49.21 48.30 47.10 46.45 46.25 46.22 46.11 45.99 46.34 41.89 38.53 38.18 36.91 33.90 33.70 34.53 31.12 30.05 32.24 29.06 27.50 32.40 35.79 33.75 39.32 32.89 31.52 28.57 27.88 36.83 27.66 26.66 30.34 32.24 33.30 29.55 28.61 26.62 29.41 36.89 38.93 40.23 27.05 28.61 37.93
49.85 49.88 48.61 47.74 46.72 46.25 45.96 46.06 46.05 45.82 45.73 43.44 39.12 39.42 38.98 35.25 33.86 35.57 35.94 31.20 31.13 30.95 27.11 31.12 30.89 32.10 31.06 29.14 34.07 30.40 29.93 30.74 27.59 30.88 25.03 24.33 26.33 28.61 30.37 26.87 23.01 39.25 38.28 32.74 35.75 38.08 40.35
49.80 49.31 48.06 47.17 46.23 45.81 45.75 45.81 46.14 45.83 45.65 44.97 38.15 40.66 40.90 37.17 33.53 36.69 38.37 39.51 38.10 37.45 35.92 35.06 31.38 33.94 35.93 30.51 33.15 32.66 31.43 31.27 29.01 23.94 35.07 26.43 33.03 31.16 31.80 31.12 37.69 41.27 39.26 40.22 39.23 39.62 41.19
MSLP
1025.04 1024.57 1024.12 1023.69 1023.18 1022.71 1022.17 1021.60 1021.03 1020.47 1019.95 1019.44 1018.88 1018.35 1017.89 1017.45 1017.03 1016.63 1016.27 1015.82 1015.48 1015.25 1014.96 1014.71 1014.41 1014.10 1013.74 1013.12 1010.97 1008.54 1008.68 1009.33 1009.67 1009.97 1009.93 1009.78 1009.80 1010.00 1010.01 1009.98 1009.58 1009.29 1009.06 1008.75 1008.66 1008.16 1007.68
1025.26 1024.78 1024.35 1023.87 1023.36 1022.78 1022.17 1021.64 1021.11 1020.49 1019.85 1019.25 1018.73 1018.20 1017.67 1017.13 1016.56 1016.13 1015.77 1015.44 1015.18 1014.92 1014.69 1014.41 1014.19 1014.02 1013.85 1012.21 1009.00 1008.80 1009.13 1009.59 1009.64 1009.84 1009.63 1009.56 1009.44 1009.47 1009.86 1010.04 1010.09 1009.67 1009.61 1009.30 1008.80 1008.25 1007.54
1025.43 1024.99 1024.49 1023.99 1023.47 1022.93 1022.38 1021.73 1021.08 1020.45 1019.80 1019.12 1018.51 1017.99 1017.41 1016.82 1016.21 1015.67 1015.24 1014.87 1014.67 1014.51 1014.32 1014.10 1013.97 1013.88 1013.49 1010.86 1009.20 1009.18 1009.15 1009.09 1009.05 1009.21 1009.22 1008.95 1008.94 1009.27 1009.62 1009.90 1009.97 1009.83 1009.74 1009.34 1008.60 1007.99 1007.19
1025.66 1025.16 1024.64 1024.14 1023.60 1023.07 1022.45 1021.80 1021.09 1020.37 1019.69 1019.03 1018.31 1017.74 1017.16 1016.51 1015.86 1015.24 1014.70 1014.30 1014.06 1013.82 1013.75 1013.78 1013.68 1013.66 1012.22 1009.66 1009.31 1009.14 1008.99 1008.85 1008.46 1008.55 1008.50 1008.47 1008.78 1009.45 1009.96 1010.10 1009.95 1010.13 1010.37 1010.28 1008.84 1008.06 1006.90
1025.73 1025.22 1024.70 1024.22 1023.66 1023.11 1022.46 1021.72 1021.06 1020.38 1019.67 1018.95 1018.19 1017.42 1016.81 1016.19 1015.51 1014.84 1014.17 1013.61 1013.26 1012.97 1013.09 1013.48 1013.67 1013.35 1011.23 1009.13 1009.01 1008.28 1008.46 1008.39 1008.18 1008.18 1008.14 1008.35 1008.97 1009.92 1010.45 1011.10 1011.54 1011.35 1011.49 1010.83 1009.75 1008.11 1007.45
1025.83 1025.29 1024.76 1024.23 1023.67 1023.10 1022.44 1021.73 1021.01 1020.25 1019.51 1018.76 1018.01 1017.27 1016.53 1015.83 1015.13 1014.43 1013.56 1012.85 1012.70 1012.94 1013.09 1013.34 1013.02 1013.12 1010.66 1009.50 1008.84 1008.15 1008.03 1008.13 1008.31 1008.46 1008.57 1008.90 1009.87 1010.46 1011.29 1011.76 1012.02 1011.80 1011.60 1011.03 1010.14 1008.69 1007.92
1026.03 1025.47 1024.91 1024.33 1023.72 1023.09 1022.41 1021.74 1020.97 1020.12 1019.31 1018.51 1017.71 1017.03 1016.30 1015.59 1014.81 1014.17 1013.49 1012.72 1013.00 1012.94 1012.69 1012.07 1011.64 1011.24 1010.28 1009.30 1008.47 1008.06 1007.86 1008.01 1008.45 1009.09 1009.71 1010.02 1010.75 1011.24 1011.23 1011.26 1011.17 1011.36 1011.27 1010.91 1010.15 1009.16 1008.55
1026.12 1025.58 1025.01 1024.35 1023.72 1023.11 1022.41 1021.62 1020.81 1020.01 1019.18 1018.41 1017.57 1016.79 1016.02 1015.23 1014.48 1013.90 1013.70 1013.20 1012.47 1012.37 1011.82 1010.75 1010.40 1010.27 1009.54 1009.74 1009.41 1008.30 1007.88 1008.50 1008.93 1009.67 1009.99 1010.66 1010.75 1010.59 1010.60 1010.67 1010.98 1011.05 1011.05 1010.92 1010.26 1009.67 1009.02
1025.94 1025.44 1024.85 1024.20 1023.54 1022.80 1022.09 1021.39 1020.57 1019.77 1019.02 1018.13 1017.30 1016.54 1015.71 1014.79 1014.07 1013.85 1013.53 1012.63 1011.85 1011.96 1011.96 1010.28 1009.57 1009.21 1008.79 1009.17 1008.99 1008.04 1008.06 1008.38 1009.06 1009.75 1010.25 1010.80 1010.38 1010.14 1010.36 1010.49 1010.73 1010.92 1011.06 1011.07 1010.96 1010.16 1009.39
1025.88 1025.41 1024.79 1024.15 1023.36 1022.61 1021.85 1021.10 1020.35 1019.45 1018.60 1017.80 1017.00 1016.21 1015.45 1014.52 1013.99 1013.90 1012.97 1012.07 1011.75 1011.82 1011.69 1010.11 1009.00 1008.05 1008.11 1008.33 1008.34 1007.52 1007.60 1008.46 1009.03 1009.54 1010.12 1010.37 1009.84 1009.96 1010.05 1010.32 1010.66 1010.86 1010.86 1011.09 1011.18 1011.21 1010.76
1025.85 1025.24 1024.63 1023.90 1023.18 1022.34 1021.62 1020.95 1020.18 1019.22 1018.19 1017.27 1016.55 1015.79 1015.15 1014.96 1014.63 1013.74 1012.52 1012.05 1011.70 1011.83 1011.05 1009.42 1008.40 1007.57 1008.00 1008.49 1008.14 1007.42 1007.36 1008.06 1008.73 1009.24 1010.09 1009.95 1009.83 1009.89 1010.01 1009.97 1010.27 1010.63 1010.79 1011.36 1011.60 1011.67 1011.40
1025.72 1025.07 1024.45 1023.68 1022.90 1022.25 1021.53 1020.65 1019.88 1019.00 1017.89 1016.78 1015.83 1015.16 1014.69 1014.58 1014.60 1012.98 1012.37 1012.02 1011.91 1012.27 1010.86 1009.38 1008.60 1008.28 1008.54 1008.47 1008.33 1007.85 1007.62 1007.86 1008.48 1009.44 1009.98 1009.99 1009.58 1009.66 1009.55 1009.71 1010.10 1010.48 1011.17 1011.77 1011.97 1012.10 1011.72
1025.67 1025.09 1024.27 1023.56 1022.81 1022.08 1021.26 1020.43 1019.56 1018.65 1017.47 1016.37 1015.23 1014.26 1014.15 1013.97 1013.43 1012.63 1012.32 1012.48 1012.92 1012.25 1010.90 1010.42 1009.65 1009.25 1009.39 1009.46 1009.39 1009.07 1008.65 1008.89 1009.55 1010.20 1010.39 1010.31 1009.95 1009.81 1009.77 1010.06 1010.41 1011.13 1012.19 1013.16 1013.42 1013.01 1011.89
1025.64 1025.09 1024.47 1023.66 1022.85 1021.93 1021.18 1020.31 1019.34 1018.35 1017.22 1015.93 1014.81 1013.95 1013.81 1013.33 1012.88 1012.86 1012.89 1013.30 1013.35 1012.49 1011.35 1010.55 1010.17 1009.75 1010.17 1010.27 1010.32 1010.20 1009.99 1010.42 1010.65 1010.74 1011.14 1011.27 1010.87 1010.10 1010.11 1010.26 1010.68 1011.30 1012.33 1013.62 1013.77 1013.48 1012.11
1025.47 1024.98 1024.40 1023.65 1022.80 1021.95 1021.04 1020.36 1019.44 1018.31 1017.20 1015.92 1014.59 1014.15 1013.83 1012.84 1012.66 1013.05 1013.78 1013.91 1013.50 1012.74 1011.87 1010.87 1010.48 1010.52 1010.82 1011.12 1011.22 1011.12 1011.09 1010.92 1011.04 1011.22 1011.71 1011.92 1011.32 1010.45 1010.10 1009.99 1010.53 1011.14 1012.10 1012.10 1013.21 1013.20 1012.70
1025.34 1024.84 1024.29 1023.68 1022.92 1022.20 1021.30 1020.46 1019.54 1018.41 1017.17 1016.17 1015.69 1015.18 1013.75 1012.59 1012.63 1013.36 1014.33 1014.41 1013.49 1012.62 1011.83 1011.07 1011.08 1011.16 1011.44 1011.79 1011.99 1012.08 1011.72 1011.09 1011.33 1011.50 1011.64 1012.21 1011.77 1010.83 1010.27 1010.06 1010.02 1010.44 1011.07 1012.30 1013.64 1013.39 1012.11
1025.52 1024.79 1024.21 1023.62 1022.97 1022.23 1021.53 1020.69 1019.75 1018.72 1017.36 1016.18 1016.03 1015.26 1013.62 1012.89 1012.90 1014.27 1015.16 1014.78 1013.48 1012.46 1011.88 1011.41 1011.30 1011.49 1011.94 1012.25 1012.37 1012.46 1011.97 1011.32 1011.28 1011.48 1011.75 1012.19 1012.62 1011.63 1010.98 1010.19 1009.69 1010.45 1010.90 1011.75 1012.52 1012.74 1011.59
1025.49 1024.83 1024.16 1023.66 1023.13 1022.36 1021.50 1020.76 1020.03 1019.09 1017.95 1016.91 1017.14 1016.18 1013.88 1013.22 1014.48 1015.86 1015.75 1014.79 1013.60 1012.62 1012.01 1011.76 1011.65 1011.91 1012.27 1012.55 1012.66 1012.63 1012.22 1011.48 1011.32 1011.55 1012.02 1012.46 1012.84 1012.51 1011.19 1009.63 1009.60 1010.01 1010.36 1011.07 1011.96 1011.67 1010.90
1025.23 1024.90 1024.32 1023.65 1023.06 1022.58 1021.90 1021.11 1020.18 1019.44 1018.92 1018.76 1018.60 1017.29 1014.48 1014.08 1015.92 1016.65 1015.99 1015.01 1013.92 1013.18 1012.80 1012.59 1012.54 1012.69 1012.88 1013.05 1013.23 1012.79 1012.27 1011.58 1011.60 1011.78 1012.05 1012.59 1013.18 1012.92 1011.19 1010.00 1009.66 1009.97 1010.49 1010.51 1010.99 1010.94 1009.86
1024.85 1024.68 1024.12 1023.58 1023.11 1022.55 1021.86 1021.18 1020.42 1019.55 1018.88 1018.95 1019.00 1018.60 1017.18 1016.69 1017.30 1017.48 1017.08 1015.69 1014.59 1013.48 1013.38 1013.27 1013.18 1013.14 1013.40 1013.52 1013.41 1013.18 1012.84 1012.21 1011.86 1012.07 1012.17 1012.63 1013.15 1013.16 1012.43 1011.47 1010.94 1010.46 1010.30 1010.34 1010.25 1009.53 1008.55
1024.70 1024.42 1024.26 1023.69 1023.09 1022.67 1022.17 1021.42 1020.53 1019.68 1018.83 1018.87 1019.71 1020.46 1020.21 1019.15 1018.66 1018.52 1017.93 1016.46 1015.46 1014.74 1014.01 1013.71 1013.68 1013.75 1014.07 1014.14 1013.76 1013.31 1012.93 1012.68 1012.28 1011.96 1012.23 1012.77 1013.00 1012.62 1011.83 1011.29 1010.49 1009.71 1009.25 1008.79 1008.76 1008.23 1007.86
1024.77 1024.38 1024.32 1023.95 1023.35 1022.81 1022.29 1021.85 1020.98 1020.00 1018.89 1019.64 1020.78 1021.21 1020.65 1020.15 1019.41 1018.82 1017.92 1017.11 1016.42 1015.75 1015.38 1014.55 1014.39 1014.22 1014.22 1014.34 1013.85 1013.18 1013.21 1013.14 1012.76 1012.28 1012.71 1012.93 1012.67 1012.36 1011.09 1010.32 1009.57 1008.53 1007.76 1007.36 1007.12 1006.61 1006.55
1024.75 1024.27 1024.18 1024.03 1023.44 1023.01 1022.62 1021.96 1021.61 1020.95 1020.18 1020.81 1021.06 1021.13 1021.16 1020.56 1019.98 1019.34 1018.27 1017.72 1017.17 1016.91 1015.39 1014.98 1014.85 1014.42 1014.01 1013.48 1013.24 1012.85 1012.48 1012.17 1012.09 1012.16 1012.59 1013.00 1012.81 1012.30 1010.54 1009.84 1009.32 1007.88 1006.66 1006.42 1006.40 1006.11 1006.12
1024.59 1024.27 1024.10 1024.02 1023.74 1023.17 1022.82 1022.37 1021.92 1021.64 1021.63 1022.14 1021.93 1021.59 1021.52 1020.93 1020.40 1019.44 1018.50 1018.11 1017.63 1017.19 1016.67 1015.46 1014.99 1014.60 1013.46 1012.96 1012.54 1011.42 1010.86 1010.68 1010.90 1010.87 1011.65 1012.31 1012.48 1012.20 1010.87 1010.17 1009.03 1006.83 1006.24 1006.07 1006.16 1006.05 1006.01
1024.38 1024.21 1024.02 1024.02 1023.65 1023.17 1022.72 1022.55 1022.12 1021.92 1021.77 1022.21 1022.18 1022.23 1021.75 1021.11 1020.19 1019.11 1018.38 1018.14 1017.63 1017.00 1016.47 1015.57 1014.65 1014.09 1013.54 1013.44 1012.82 1011.57 1010.54 1010.35 1010.46 1010.85 1011.21 1011.77 1012.34 1011.75 1011.41 1010.44 1008.21 1006.15 1006.22 1006.39 1006.44 1005.82 1005.49
1024.09 1023.85 1023.79 1023.95 1023.60 1023.14 1022.70 1022.34 1022.18 1021.96 1021.67 1021.98 1022.14 1021.93 1021.88 1021.62 1019.67 1018.76 1018.58 1018.27 1018.08 1017.44 1016.65 1015.63 1014.70 1013.79 1013.76 1013.41 1013.13 1012.49 1011.58 1010.88 1010.86 1011.14 1011.41 1011.56 1011.61 1011.94 1011.17 1010.32 1008.59 1006.31 1006.27 1006.33 1006.30 1005.63 1005.58
1023.83 1023.56 1023.50 1023.76 1023.61 1023.07 1022.64 1022.36 1021.97 1021.79 1021.55 1021.68 1021.86 1021.73 1021.85 1021.49 1019.28 1018.78 1018.63 1018.33 1017.94 1017.73 1017.36 1016.49 1015.79 1014.61 1013.98 1013.95 1013.42 1012.86 1012.10 1011.55 1011.60 1011.67 1011.76 1011.64 1011.43 1011.21 1010.74 1009.79 1007.90 1006.60 1006.81 1006.56 1006.64 1006.14 1005.38
1023.44 1023.11 1023.07 1023.28 1023.39 1023.05 1022.61 1022.25 1021.97 1021.68 1021.59 1021.63 1021.82 1021.71 1021.53 1020.95 1019.11 1018.27 1018.15 1017.79 1017.66 1017.71 1017.54 1016.64 1016.09 1015.29 1014.80 1014.41 1013.78 1013.47 1012.99 1012.47 1012.36 1011.96 1011.80 1011.81 1011.55 1010.82 1010.08 1009.21 1008.07 1007.34 1007.22 1007.51 1006.86 1005.71 1005.23
1023.08 1022.83 1022.80 1022.83 1022.87 1022.73 1022.40 1022.09 1021.72 1021.49 1021.38 1021.33 1021.78 1021.48 1021.37 1021.22 1018.76 1017.81 1017.26 1016.77 1016.59 1016.27 1016.70 1016.48 1016.32 1016.12 1015.51 1014.80 1014.61 1014.32 1013.84 1013.19 1012.82 1012.40 1011.51 1011.39 1011.01 1010.85 1010.41 1008.20 1007.49 1007.27 1007.15 1006.72 1006.54 1005.77 1004.70
Wind_Speed
15 16 17 18 18 18 18 18 18 19 19 19 20 20 20 21 20 20 19 18 18 16 15 14 13 12 5 2 9 6 7 5 2 2 4 1 3 2 1 4 6 4 3 4 6 8 7
16 17 17 18 18 19 19 20 20 19 19 19 19 20 20 21 22 22 20 19 17 16 15 13 11 9 1 3 3 4 6 4 5 4 3 3 4 4 3 2 1 3 3 7 3 6 5
17 17 17 17 18 19 20 20 20 21 21 20 20 21 21 22 22 22 21 20 18 16 13 12 8 2 1 12 3 6 6 6 5 6 3 5 4 2 1 5 2 3 6 5 5 5 6
17 17 17 17 18 20 20 21 22 22 23 22 21 20 21 22 22 23 22 21 18 17 13 9 5 2 8 5 2 7 4 6 7 9 3 4 3 3 2 3 8 5 5 5 5 4 7
18 18 18 19 20 20 21 22 23 22 23 24 22 22 23 22 23 23 23 21 20 13 8 5 2 2 9 10 2 6 6 3 2 4 4 2 5 3 3 3 5 6 1 2 7 4 5
18 19 19 20 21 21 20 22 23 23 24 25 25 23 22 23 23 22 23 19 6 1 3 6 3 2 6 1 5 4 5 5 3 5 6 5 5 2 4 4 3 5 3 4 5 7 3
19 19 19 20 21 20 20 21 23 25 25 26 26 24 23 23 23 19 12 4 5 3 3 6 5 4 6 6 5 4 4 1 2 6 2 3 5 3 7 7 7 4 4 6 8 11 7
18 19 20 21 21 22 20 21 23 26 25 25 27 27 26 24 23 21 2 4 3 4 7 8 10 9 12 3 5 9 3 3 2 2 2 6 3 6 5 4 2 1 2 4 5 9 9
17 19 19 20 20 20 24 23 23 26 26 25 25 25 27 26 26 1 1 3 7 1 2 7 4 4 6 10 7 9 8 4 4 3 4 4 7 4 2 2 4 2 2 4 6 7 5
18 19 20 19 18 19 21 24 24 27 25 26 25 24 24 26 2 4 3 3 8 3 4 4 2 5 2 3 4 6 7 7 2 8 4 4 4 3 3 2 3 2 3 4 6 6 4
19 19 19 19 20 20 21 23 25 27 26 27 26 26 23 12 4 1 4 8 5 4 4 3 1 3 3 3 4 3 4 3 9 6 5 9 3 5 3 4 3 6 2 1 5 9 3
18 19 19 20 21 21 22 23 26 28 28 28 28 26 17 1 1 6 7 7 4 4 1 3 3 5 3 3 5 6 5 3 2 2 3 7 3 5 6 4 4 0 2 4 4 2 3
17 17 18 20 20 22 23 24 26 28 30 30 29 25 3 2 2 4 5 4 5 5 6 3 3 5 5 5 6 5 4 4 2 1 3 4 1 1 1 1 5 5 6 5 6 3 6
17 19 20 20 21 23 23 25 27 28 30 32 32 14 2 4 3 5 4 6 6 7 3 2 3 7 4 8 3 7 6 3 5 3 2 2 5 4 2 4 6 6 8 6 5 4 9
17 18 19 21 20 21 24 25 27 28 29 31 21 4 2 4 2 3 6 6 4 3 5 5 5 3 2 2 2 7 5 1 3 2 3 2 4 4 11 6 6 2 4 7 4 4 3
16 18 20 20 20 20 24 26 26 28 29 26 3 4 4 5 3 6 6 1 2 3 7 1 2 2 3 1 1 3 4 1 4 1 2 4 6 8 4 2 7 8 6 4 1 5 8
16 17 18 19 19 21 24 26 27 27 30 21 3 4 4 5 5 6 4 3 4 4 5 3 4 3 0 1 2 3 6 4 1 4 2 5 4 4 3 6 9 3 3 1 3 4 5
16 18 17 20 19 21 23 24 26 26 27 8 3 3 4 4 5 1 0 3 4 5 5 4 3 1 3 2 3 3 4 4 3 1 2 1 2 4 9 20 15 12 11 8 5 6 5
14 17 17 15 18 21 22 24 25 25 21 3 3 4 4 5 3 3 6 5 3 3 3 4 4 3 4 1 3 4 4 5 2 3 2 3 0 6 8 5 5 2 3 1 1 2 8
13 14 15 16 18 19 20 22 24 26 24 3 3 4 6 6 2 2 4 5 5 5 2 1 3 1 3 2 4 5 5 6 6 2 4 6 4 7 10 14 13 19 17 17 11 6 7
12 13 14 15 17 19 21 22 23 25 27 3 4 1 2 5 2 3 3 3 4 5 3 4 3 1 2 5 4 7 4 6 8 7 2 7 6 8 13 16 19 21 21 20 18 16 11
12 13 13 15 16 17 17 20 22 25 21 5 3 3 4 4 4 4 1 1 2 2 3 5 4 6 6 7 9 16 7 3 7 4 7 4 4 4 15 15 15 17 16 16 15 16 16
12 11 11 14 15 14 16 16 19 20 12 3 2 0 2 4 4 2 3 1 4 8 6 7 7 6 6 9 6 13 14 14 11 8 7 5 3 3 8 6 12 9 3 3 5 8 7
11 11 10 13 14 13 14 15 15 16 8 1 2 1 2 5 2 4 5 7 13 6 7 9 8 6 6 7 11 12 14 16 15 16 11 5 4 3 4 7 3 3 2 1 8 13 6
11 12 9 12 12 12 12 13 13 12 12 2 2 2 1 5 4 12 6 5 7 9 5 9 10 4 8 6 5 7 4 1 3 3 6 5 3 3 3 4 11 9 3 2 4 12 12
10 10 8 12 11 11 11 11 11 11 11 3 1 2 1 3 5 4 3 3 4 4 6 5 9 7 4 2 1 3 3 3 4 4 5 5 4 3 1 5 6 3 5 5 6 11 5
10 8 8 11 12 11 10 10 10 10 11 3 2 2 1 3 6 3 5 3 2 1 4 5 7 7 2 3 2 2 3 2 3 3 2 3 3 8 9 6 8 1 4 6 5 7 15
11 7 7 10 12 11 11 10 10 10 9 5 4 3 1 3 10 6 4 3 1 3 3 4 6 4 4 5 3 3 3 3 3 3 3 3 2 4 3 5 8 5 5 4 7 14 15
10 8 8 9 11 11 11 11 11 10 8 6 2 2 1 4 9 3 14 16 14 18 4 2 4 5 5 2 2 3 3 3 1 3 2 3 5 3 5 6 3 4 8 13 8 15 14
Wind_Direction
11 9 8 6 4 0 357 353 351 349 346 343 340 338 335 332 329 327 323 320 319 315 311 311 314 324 349 341 251 259 194 170 137 171 243 262 88 109 286 313 335 196 295 333 320 303 274
11 9 8 4 2 359 357 354 351 347 341 339 336 334 332 330 329 325 322 318 313 307 301 302 308 326 23 283 273 348 113 143 214 198 275 182 189 212 140 286 145 303 271 283 279 275 251
8 6 3 1 358 356 354 352 349 344 344 339 336 333 331 331 329 325 321 315 310 302 292 288 295 267 344 240 339 338 166 213 188 192 228 221 176 39 126 315 190 274 324 340 225 220 240
4 0 357 355 353 350 348 347 345 341 339 336 333 330 330 330 328 327 319 311 304 294 282 274 274 184 250 238 262 298 150 275 221 203 209 248 169 130 143 306 348 351 60 28 286 296 251
0 357 354 352 348 347 346 344 345 341 338 334 331 330 330 329 328 327 319 308 302 290 259 205 132 159 273 309 253 241 174 236 267 286 281 224 107 148 54 76 353 7 279 284 298 262 281
356 355 352 350 348 347 342 342 341 336 336 334 331 330 329 329 327 324 320 309 289 67 135 173 226 326 273 277 291 233 201 232 250 316 10 54 51 95 36 74 265 289 290 259 267 293 252
354 354 351 348 348 345 342 341 337 335 335 334 330 330 328 328 326 325 332 21 22 6 196 210 202 248 276 308 309 264 234 264 60 60 12 6 73 208 246 219 239 276 282 272 278 287 283
354 353 351 350 349 344 340 338 335 336 335 332 328 327 328 326 325 324 141 83 211 226 305 242 239 234 260 69 305 293 120 160 121 273 1 17 293 222 246 292 229 11 321 317 296 325 327
353 353 352 348 341 338 343 339 335 336 333 328 326 325 326 324 321 24 302 239 288 331 11 299 209 207 225 148 221 257 149 199 190 208 174 160 244 306 267 13 23 329 143 302 281 315 280
354 353 350 342 334 335 336 342 335 337 330 327 326 326 326 327 340 322 272 317 330 106 61 283 270 264 163 174 248 225 194 162 213 219 210 226 271 237 310 276 140 311 269 290 307 353 294
352 351 347 339 337 336 341 335 336 336 330 327 326 326 326 321 291 351 299 335 302 64 70 169 120 264 88 182 292 270 170 117 222 201 115 246 228 275 272 221 173 230 283 287 282 274 249
349 348 345 339 336 341 337 338 338 336 331 329 329 326 329 106 197 247 314 311 59 50 73 21 23 6 333 260 287 298 183 94 128 183 236 250 237 160 211 200 199 165 345 347 329 302 251
348 342 340 339 341 339 337 338 340 338 333 331 332 328 303 178 216 326 325 46 42 65 316 10 333 340 22 332 17 336 353 51 58 354 345 330 304 233 123 5 360 73 55 333 335 339 237
341 340 342 343 339 337 341 342 340 340 336 336 331 329 195 230 308 352 43 56 73 249 28 250 312 335 92 16 40 342 8 60 33 79 169 182 311 178 142 207 229 213 159 165 253 263 283
342 341 341 341 337 340 341 345 343 341 340 338 330 333 312 278 186 74 65 57 169 348 335 312 317 284 134 38 354 13 337 224 97 37 107 355 268 310 307 271 153 241 171 201 228 285 284
344 343 341 337 337 343 345 346 345 343 341 340 350 340 289 306 98 57 71 237 242 14 319 272 171 275 304 90 127 23 295 250 132 199 184 195 279 241 278 21 254 184 187 226 79 263 239
341 345 340 339 343 349 348 346 346 347 342 336 21 43 281 354 60 44 103 253 292 320 353 294 240 236 252 299 211 228 240 302 99 207 180 181 176 267 2 220 246 308 252 109 174 183 232
340 346 342 342 351 348 349 348 349 351 347 17 355 44 318 24 44 40 31 292 288 314 343 347 52 87 206 244 256 245 242 234 202 194 320 191 148 290 270 271 277 259 247 194 207 242 236
338 340 340 351 352 348 351 349 349 351 0 328 2 281 315 69 91 331 308 293 275 296 12 14 351 16 15 307 322 224 269 302 145 31 251 171 135 298 303 355 21 33 308 206 277 172 215
332 332 340 353 353 352 351 351 350 349 352 109 37 353 328 34 45 60 346 274 320 302 125 280 260 83 24 305 199 270 286 290 339 267 244 140 199 230 272 280 286 284 272 257 240 236 259
329 330 341 353 353 354 353 354 354 353 347 104 29 353 205 310 339 338 268 272 315 354 345 330 328 218 199 272 279 250 251 298 303 271 174 142 241 247 266 270 276 276 278 275 266 259 251
322 337 337 348 350 354 357 358 356 358 348 74 72 25 354 297 307 320 290 167 276 347 285 284 235 298 286 226 223 279 287 189 229 251 155 191 266 280 278 262 272 286 279 267 275 267 259
313 330 334 342 345 351 353 4 4 8 16 52 323 344 332 286 318 341 250 45 313 326 272 236 313 305 261 259 255 269 254 249 235 201 184 195 220 236 262 328 315 288 233 239 298 288 306
306 322 333 337 341 347 352 357 5 12 53 112 288 332 53 280 280 249 298 305 295 268 258 279 286 277 251 307 292 268 250 248 242 243 202 193 193 230 274 344 288 245 175 274 320 302 339
305 316 332 327 331 338 349 349 1 3 6 81 286 36 327 279 232 287 263 241 302 289 260 266 280 252 297 301 303 315 322 292 130 131 145 158 167 273 271 257 285 275 179 68 334 300 290
294 306 322 317 321 331 339 346 351 352 349 88 268 222 311 320 258 273 312 244 271 291 321 281 332 314 328 250 292 267 279 316 331 125 162 183 166 210 243 256 261 223 159 308 292 295 38
288 293 313 312 314 322 331 338 341 342 339 3 264 178 126 267 272 190 216 245 247 263 267 306 326 320 347 347 293 265 270 283 334 316 213 251 238 245 263 259 266 134 337 315 276 315 318
278 276 295 304 307 314 324 328 328 337 344 356 278 201 122 255 282 249 256 215 247 175 196 289 349 338 355 19 308 348 337 323 349 268 232 218 236 237 238 242 269 37 8 311 292 297 295
274 267 286 295 300 307 313 317 319 325 335 334 279 274 172 222 257 278 256 241 239 245 207 215 234 318 288 357 26 331 319 311 264 278 179 280 200 270 230 251 204 336 254 288 293 297 295